DW1902 Weather Reports


Display with metric or nautical units.
time (UTC)temp
F
wind
direction
speed
MPH
gust
MPH
rain 1hr
in
rain 24hr
in
rain mn
in
humidity
%
barometer
mb
20171122110208 47 202 0.0 1.0 0.01 0.01 0.01 100 1018.9
20171122105705 47 202 0.0 1.0 0.01 0.01 0.01 100 1018.8
20171122105206 47 202 0.0 3.0 0.01 0.01 0.01 100 1018.8
20171122104706 47 202 0.0 5.0 0.01 0.01 0.01 100 1018.8
20171122104205 47 202 0.0 5.0 0.01 0.01 0.01 100 1018.8
20171122103706 47 202 0.0 5.0 0.01 0.01 0.01 100 1018.8
20171122103206 47 202 1.0 5.0 0.01 0.01 0.01 100 1018.8
20171122102706 47 205 1.0 5.0 0.01 0.01 0.01 100 1018.7
20171122102210 47 205 1.0 5.0 0.01 0.01 0.01 100 1018.6
20171122101705 47 205 1.0 4.0 0.01 0.01 0.01 100 1018.6
20171122101206 47 205 1.0 3.0 0.01 0.01 0.01 100 1018.4
20171122100706 47 205 0.0 3.0 0.00 0.00 0.00 100 1018.4
20171122100206 47 205 1.0 4.0 0.00 0.00 0.00 100 1018.4
20171122095706 47 205 0.0 5.0 0.00 0.00 0.00 100 1018.4
20171122095205 47 205 0.0 7.0 0.00 0.00 0.00 100 1018.4
20171122094705 47 205 1.0 7.0 0.00 0.00 0.00 100 1018.4
20171122094206 47 205 1.0 7.0 0.00 0.00 0.00 100 1018.5
20171122093705 47 200 1.0 7.0 0.00 0.00 0.00 100 1018.4
20171122093206 47 198 1.0 5.0 0.00 0.00 0.00 100 1018.4
20171122092706 47 198 1.0 3.0 0.00 0.00 0.00 100 1018.4
20171122092207 47 196 0.0 3.0 0.00 0.00 0.00 100 1018.4
20171122091705 47 196 0.0 6.0 0.00 0.00 0.00 100 1018.5
20171122091205 46 196 0.0 6.0 0.00 0.00 0.00 100 1018.5
20171122090706 46 196 1.0 6.0 0.00 0.00 0.00 100 1018.6
20171122090207 46 196 1.0 4.0 0.00 0.00 0.00 100 1018.6
20171122085706 46 198 0.0 4.0 0.00 0.00 0.00 100 1018.6
20171122085207 46 198 0.0 3.0 0.00 0.00 0.00 100 1018.6
20171122084705 46 198 0.0 3.0 0.00 0.00 0.00 100 1018.7
20171122084205 46 198 0.0 3.0 0.00 0.00 0.00 100 1018.7
20171122083706 46 198 0.0 3.0 0.00 0.00 0.00 100 1018.6
20171122083205 46 198 0.0 3.0 0.00 0.00 0.00 100 1018.7
20171122082708 46 198 0.0 3.0 0.00 0.00 0.00 100 1018.8
20171122082205 46 198 0.0 5.0 0.00 0.00 0.00 100 1018.7
20171122081705 46 198 1.0 5.0 0.00 0.00 0.00 99 1018.6
20171122081206 46 198 1.0 5.0 0.00 0.00 0.00 99 1018.7
20171122080705 46 198 0.0 2.0 0.00 0.00 0.00 99 1018.7
20171122080206 46 198 0.0 2.0 0.00 0.00 0.00 99 1018.7
20171122075704 46 198 0.0 2.0 0.00 0.00 0.00 99 1018.8
20171122075206 46 198 0.0 2.0 0.00 0.00 0.00 99 1018.7
20171122074705 47 198 0.0 2.0 0.00 0.00 0.00 99 1018.7
20171122074207 47 198 0.0 2.0 0.00 0.00 0.00 99 1018.6
20171122073707 47 198 0.0 2.0 0.00 0.00 0.00 99 1018.7
20171122073206 47 198 0.0 4.0 0.00 0.00 0.00 99 1018.8
20171122072705 47 198 0.0 4.0 0.00 0.00 0.00 99 1018.9
20171122072206 47 198 0.0 3.0 0.00 0.00 0.00 99 1019.0
20171122071706 47 197 0.0 2.0 0.00 0.00 0.00 99 1019.1
20171122071205 48 197 0.0 3.0 0.00 0.00 0.00 99 1019.0
20171122070705 48 197 0.0 3.0 0.00 0.00 0.00 99 1019.0
20171122070205 48 197 0.0 2.0 0.00 0.00 0.00 99 1019.1
20171122065705 48 197 0.0 8.0 0.00 0.00 0.00 99 1019.1
20171122065205 48 197 1.0 9.0 0.00 0.00 0.00 99 1019.2
20171122064705 48 197 2.0 9.0 0.00 0.00 0.00 99 1019.2
20171122064206 48 190 1.0 9.0 0.00 0.00 0.00 99 1019.3
20171122063705 48 197 2.0 7.0 0.00 0.00 0.00 99 1019.4
20171122063205 48 186 2.0 8.0 0.00 0.00 0.00 99 1019.4
20171122062705 48 197 2.0 8.0 0.00 0.00 0.00 99 1019.6
20171122062205 48 197 2.0 8.0 0.00 0.00 0.00 99 1019.5
20171122061706 48 184 2.0 7.0 0.00 0.00 0.00 98 1019.5
20171122061206 48 183 1.0 8.0 0.00 0.00 0.00 98 1019.5
20171122060706 48 168 2.0 8.0 0.00 0.00 0.00 98 1019.5
20171122060205 48 190 3.0 9.0 0.00 0.00 0.00 98 1019.4
20171122055705 48 202 3.0 9.0 0.00 0.00 0.00 98 1019.4
20171122055210 48 203 3.0 8.0 0.00 0.00 0.00 98 1019.5
20171122054717 48 185 2.0 8.0 0.00 0.00 0.00 98 1019.6
20171122054224 48 205 2.0 10.0 0.00 0.00 0.00 98 1019.6
20171122053719 48 202 3.0 10.0 0.00 0.00 0.00 98 1019.6
20171122053206 48 192 3.0 10.0 0.00 0.00 0.00 98 1019.6
20171122052705 48 211 3.0 8.0 0.00 0.00 0.00 98 1019.8
20171122052205 48 186 4.0 8.0 0.00 0.00 0.00 98 1019.8
20171122051706 48 198 3.0 10.0 0.00 0.00 0.00 98 1019.8
20171122051205 48 186 3.0 10.0 0.00 0.00 0.00 98 1019.8
20171122050706 48 227 3.0 8.0 0.00 0.00 0.00 98 1019.8
20171122045705 48 200 3.0 8.0 0.00 0.00 0.00 98 1019.8
20171122045205 48 190 3.0 8.0 0.00 0.00 0.00 97 1019.8
20171122044707 48 196 3.0 7.0 0.00 0.00 0.00 97 1019.8
20171122044211 48 193 3.0 8.0 0.00 0.00 0.00 97 1019.7
20171122043705 48 209 2.0 10.0 0.00 0.00 0.00 97 1019.7
20171122043205 48 187 3.0 10.0 0.00 0.00 0.00 97 1019.7
20171122042705 49 200 3.0 11.0 0.00 0.00 0.00 97 1019.7
20171122034205 49 223 3.0 10.0 0.00 0.00 0.00 97 1019.6
20171122032706 49 214 4.0 9.0 0.00 0.00 0.00 98 1019.8
20171122032205 49 198 3.0 9.0 0.00 0.00 0.00 98 1019.7
20171122030705 49 207 5.0 12.0 0.00 0.00 0.00 99 1019.7
20171122030206 48 234 3.0 12.0 0.00 0.00 0.00 100 1019.6
20171122025705 48 193 4.0 14.0 0.00 0.00 0.00 100 1019.4
20171122025207 48 205 5.0 14.0 0.00 0.00 0.00 100 1019.4
20171122024706 47 237 5.0 13.0 0.00 0.00 0.00 100 1019.4
20171122024205 47 194 4.0 11.0 0.00 0.00 0.00 100 1019.4
20171122023705 47 190 4.0 11.0 0.00 0.00 0.00 100 1019.5
20171122023205 47 188 3.0 10.0 0.00 0.00 0.00 100 1019.5
20171122022706 47 177 3.0 10.0 0.00 0.00 0.00 100 1019.5
20171122022205 47 200 4.0 10.0 0.00 0.00 0.00 100 1019.5
20171122021706 46 203 4.0 10.0 0.00 0.00 0.00 100 1019.5
20171122021206 46 198 4.0 10.0 0.00 0.00 0.00 100 1019.5
20171122020705 46 224 3.0 9.0 0.00 0.00 0.00 100 1019.4
20171122020205 45 205 3.0 9.0 0.00 0.00 0.00 100 1019.5
20171122015705 45 206 3.0 9.0 0.00 0.00 0.00 100 1019.5
20171122015206 45 201 3.0 6.0 0.00 0.00 0.00 100 1019.5
20171122014706 45 195 2.0 8.0 0.00 0.00 0.00 100 1019.6
20171122013206 44 198 2.0 10.0 0.00 0.00 0.00 100 1019.8
20171122012705 44 188 2.0 10.0 0.00 0.00 0.00 100 1019.8
20171122012206 44 177 2.0 8.0 0.00 0.00 0.00 100 1019.9
20171122011706 43 199 2.0 10.0 0.00 0.00 0.00 100 1019.9
20171122011205 43 209 3.0 10.0 0.00 0.00 0.00 100 1019.9
20171122010705 43 184 3.0 10.0 0.00 0.00 0.00 100 1019.9
20171122010206 42 200 2.0 7.0 0.00 0.00 0.00 100 1020.0
20171122005706 41 193 1.0 6.0 0.00 0.00 0.00 100 1020.0
20171122005207 40 200 1.0 5.0 0.00 0.00 0.00 100 1020.1
20171122004710 40 197 2.0 5.0 0.00 0.00 0.00 100 1020.0
20171122004206 40 200 1.0 5.0 0.00 0.00 0.00 100 1020.1
20171122003706 39 202 0.0 2.0 0.00 0.00 0.00 100 1020.1
20171122003206 38 202 0.0 1.0 0.00 0.00 0.00 100 1020.0
20171122002707 38 202 0.0 1.0 0.00 0.00 0.00 100 1020.0
20171122002214 38 202 0.0 3.0 0.00 0.00 0.00 100 1020.1
20171122001706 37 202 0.0 3.0 0.00 0.00 0.00 99 1020.3
20171122001205 37 202 0.0 2.0 0.00 0.00 0.00 99 1020.2
20171122000705 36 201 0.0 0.0 0.00 0.00 0.00 99 1020.3
20171122000210 37 201 0.0 1.0 0.00 0.00 0.00 99 1020.3
20171121235707 37 201 0.0 1.0 0.00 0.00 0.00 99 1020.1
20171121235206 36 201 0.0 0.0 0.00 0.00 0.00 99 1020.2
20171121234705 35 201 0.0 0.0 0.00 0.00 0.00 98 1020.2
20171121234206 34 201 0.0 0.0 0.00 0.00 0.00 98 1020.1
20171121233705 34 201 0.0 0.0 0.00 0.00 0.00 97 1020.1
20171121233205 33 201 0.0 0.0 0.00 0.00 0.00 97 1020.0
20171121232706 33 201 0.0 0.0 0.00 0.00 0.00 96 1020.0
20171121232206 33 201 0.0 0.0 0.00 0.00 0.00 96 1020.1
20171121231706 33 201 0.0 0.0 0.00 0.00 0.00 96 1020.0
20171121231206 33 201 0.0 0.0 0.00 0.00 0.00 96 1020.1
20171121230706 33 201 0.0 0.0 0.00 0.00 0.00 95 1020.1
20171121230206 33 201 0.0 0.0 0.00 0.00 0.00 95 1020.2
20171121225705 34 201 0.0 1.0 0.00 0.00 0.00 95 1020.3
20171121225205 34 201 0.0 2.0 0.00 0.00 0.00 95 1020.3
20171121224705 34 201 0.0 2.0 0.00 0.00 0.00 95 1020.3
20171121224205 34 201 0.0 1.0 0.00 0.00 0.00 94 1020.3
20171121223705 34 201 0.0 1.0 0.00 0.00 0.00 93 1020.4
20171121223206 34 201 0.0 1.0 0.00 0.00 0.00 92 1020.4
20171121222706 34 201 0.0 1.0 0.00 0.00 0.00 92 1020.4
20171121222207 35 201 0.0 2.0 0.00 0.00 0.00 91 1020.4
20171121221707 35 201 0.0 2.0 0.00 0.00 0.00 91 1020.4
20171121221205 35 201 0.0 2.0 0.00 0.00 0.00 90 1020.4
20171121220706 36 201 0.0 2.0 0.00 0.00 0.00 90 1020.3
20171121220206 36 201 0.0 2.0 0.00 0.00 0.00 90 1020.3
20171121215706 36 201 0.0 2.0 0.00 0.00 0.00 90 1020.3
20171121215206 37 201 0.0 1.0 0.00 0.00 0.00 89 1020.3
20171121214705 37 201 0.0 1.0 0.00 0.00 0.00 88 1020.4
20171121214207 38 201 0.0 1.0 0.00 0.00 0.00 88 1020.4
20171121213706 38 201 0.0 1.0 0.00 0.00 0.00 88 1020.4
20171121213207 38 201 0.0 0.0 0.00 0.00 0.00 87 1020.3
20171121212705 39 201 0.0 1.0 0.00 0.00 0.00 87 1020.1
20171121212207 40 201 0.0 1.0 0.00 0.00 0.00 87 1020.1
20171121211705 40 201 0.0 0.0 0.00 0.00 0.00 87 1020.2
20171121211205 41 201 0.0 0.0 0.00 0.00 0.00 87 1020.1
20171121210705 41 201 0.0 0.0 0.00 0.00 0.00 87 1020.0
20171121210205 41 201 0.0 0.0 0.00 0.00 0.00 87 1019.9
20171121205706 42 201 0.0 0.0 0.00 0.00 0.00 87 1019.9
20171121205206 42 201 0.0 0.0 0.00 0.00 0.00 87 1019.9
20171121204706 43 201 0.0 0.0 0.00 0.00 0.00 87 1020.0
20171121204210 43 201 0.0 2.0 0.00 0.00 0.00 86 1020.0
20171121203706 43 201 0.0 2.0 0.00 0.00 0.00 86 1020.1
20171121203207 44 201 0.0 4.0 0.00 0.00 0.00 85 1020.2
20171121202705 44 201 0.0 4.0 0.00 0.00 0.00 84 1020.2
20171121202205 44 201 0.0 4.0 0.00 0.00 0.00 84 1020.3
20171121201705 44 205 0.0 7.0 0.00 0.00 0.00 83 1020.3
20171121201205 44 205 1.0 7.0 0.00 0.00 0.00 83 1020.2
20171121200705 44 205 2.0 11.0 0.00 0.00 0.00 82 1020.2
20171121200206 44 166 3.0 11.0 0.00 0.00 0.00 82 1020.2
20171121195706 45 169 3.0 8.0 0.00 0.00 0.00 81 1020.2
20171121195206 45 171 2.0 9.0 0.00 0.00 0.00 80 1020.3
20171121194705 45 215 2.0 9.0 0.00 0.00 0.00 79 1020.2
20171121194208 45 161 3.0 7.0 0.00 0.00 0.00 78 1020.2
20171121193706 45 191 2.0 16.0 0.00 0.00 0.00 78 1020.2
20171121193206 45 153 3.0 16.0 0.00 0.00 0.00 77 1020.2
20171121192705 45 167 5.0 16.0 0.00 0.00 0.00 76 1020.2
20171121192206 46 194 5.0 14.0 0.00 0.00 0.00 75 1020.2
20171121191707 46 203 4.0 10.0 0.00 0.00 0.00 72 1020.2
20171121191206 46 155 3.0 12.0 0.00 0.00 0.00 72 1020.2
20171121190705 46 160 3.0 12.0 0.00 0.00 0.00 71 1020.2
20171121190206 46 217 3.0 12.0 0.00 0.00 0.00 71 1020.1
20171121185706 46 198 3.0 8.0 0.00 0.00 0.00 70 1020.1
20171121185206 46 214 2.0 9.0 0.00 0.00 0.00 69 1020.2
20171121184706 46 194 2.0 10.0 0.00 0.00 0.00 69 1020.1
20171121184205 45 144 2.0 10.0 0.00 0.00 0.00 69 1020.2
20171121183706 45 156 3.0 9.0 0.00 0.00 0.00 69 1020.3
20171121183206 46 173 2.0 7.0 0.00 0.00 0.00 67 1020.3
20171121182707 46 166 2.0 7.0 0.00 0.00 0.00 65 1020.3